ONEWEB-0697, 61603

Orbit data source: Space-Track

ONEWEB-0697, 61603 is a payload satellite owned by Eut. One Web (UK) in LEO that was launched on Sun, 20 Oct 2024 UTC via an FALCON 9 launch vehicle from the Air Force Western Test Range (AFWTR). Payload-class satellites include a variety of spacecraft equipped with specific instruments for various scientific and technological missions. These include communications satellites like Starlink; space stations such as the ISS; scientific satellites like the Hubble; Earth observation satellites from companies like Planet Labs, Umbra, and HawkEye 360; GPS; miniature CubeSats for education and research; and military/defense satellites.

Loading next visibility...
Identifier
61603, 2024-188K
Orbit
LEO
Country
Flag of UKUK
Related business
Manufacturer
One Web
Mission
Operational Commercial Communications
Bus & Motor
ARROW, Unknown motor
Mass
148 kg wet, ~140 kg dry
Launch date (UTC)
2024-10-20 (1 year ago)
Launch vehicle
FALCON 9
Launch site
Air Force Western Test Range (AFWTR)
Object type
Payload
Rocket body
Debris
Shape & HBR
Trap Box + 2 Pan, 6.7 m
Radar Cross Section
3.464 m², Large (>1 m²)

Expand to show TLE details & history
Last TLE update: 18 hours ago

TLE from 18 hours ago
0 ONEWEB-0697
1 61603U 24188K   25286.63353459  .00000429  00000-0  11734-2 0  9993
2 61603  87.8809  70.1795 0002358 108.9865 251.1518 13.11415553 52135
Epoch: 2025-10-13T15:12Z
TLE epoch observation values (Epoch: 2025-10-13T15:12:17.388Z)
Latitude
-0.00008°
Longitude
179.67354°
Altitude
1,221.156 km
Speed
7.244 km/s
True Right ascension
04h 40m 43s
True Declination
0° 00' 00"
Sunlit
Object was in full shadow at epoch
Visualization orbit readout
Latitude
Unknown
Longitude
Unknown
Altitude
Unknown
Speed
Unknown
Apparent Right ascension
Unknown
Apparent Declination
Unknown
Sunlit
N/A
Visualization observer readout
Local Sidereal Time
04:10:27
Azimuth
Unknown
Elevation
Unknown
Doppler factor
Unknown
Orbital elements
Apogee altitude
1,216.597 km
Perigee altitude
1,213.016 km
Semi-major axis
7,592.943 km
Eccentricity
0.00024
Inclination
87.8809°
RAAN
70.1795°
Arg. of periapsis
108.9865°
True anomaly
251.12623°
Mean anomaly
251.1518°
Eccentric anomaly
251.13902°
Mean motion
3.28041 °/min
Orbital period
109.74 mins
BSTAR
0.0011734
Loading maneuver chart data...
Computing Atmospheric mass density...
Loading historical data...
Loading historical data...
Loading historical data...
Loading historical data...
Loading historical data...
Loading historical data...
Loading historical data...

Documentation

Showing up to 5 results
|